Simultaneous Nadir Overpasses (SNOs) Predictions

Prediction of SNOs between LANDSAT-8 and NPP Satellite Orbit:

Table of predicted SNOs for the next 14.0 days since TLE Epoch: 3/21/2014
Index Date (LANDSAT-8) Time (LANDSAT-8) Lat,Lon (LANDSAT-8) SZA (LANDSAT-8 ) Date (NPP) Time (NPP) Lat,Lon (NPP) SZA (NPP ) Distance(km) Time Diff (sec)
1 03/21/2014 19:57:14 -71.04, 58.45 109.46 03/21/2014 19:56:05 -71.09, 56.58 109.35 67.71 69
2 03/21/2014 20:46:52 70.34,-134.96 69.85 03/21/2014 20:46:37 70.34,-134.88 69.86 3.01 15
3 03/21/2014 21:36:22 -70.23, 32.51 110.27 03/21/2014 21:37:19 -70.25, 32.58 110.26 3.71 57
4 03/24/2014 12:13:51 -70.42, 173.39 111.12 03/24/2014 12:12:55 -70.43, 173.42 111.10 2.10 56
5 03/24/2014 13:03:18 70.31, -19.13 68.76 03/24/2014 13:03:39 70.32, -19.08 68.77 1.67 21
6 03/24/2014 13:53:01 -69.48, 147.36 112.04 03/24/2014 13:54:08 -69.53, 149.42 112.07 80.31 67
7 03/27/2014 03:40:35 71.12, 122.71 68.52 03/27/2014 03:39:27 71.14, 120.69 68.60 72.96 68
8 03/27/2014 04:30:16 -70.41, -70.73 112.19 03/27/2014 04:29:57 -70.41, -70.79 112.18 2.24 19
9 03/27/2014 05:19:43 70.30, 96.75 67.70 03/27/2014 05:20:41 70.30, 96.70 67.69 1.91 58
10 03/29/2014 19:57:12 70.43,-122.45 66.80 03/29/2014 19:56:16 70.45,-122.42 66.83 3.15 56
11 03/29/2014 20:46:41 -70.38, 45.10 113.27 03/29/2014 20:46:58 -70.35, 45.06 113.29 2.86 17
12 03/29/2014 21:36:22 69.49,-148.49 65.87 03/29/2014 21:37:28 69.50,-146.33 65.81 84.02 66
13 04/01/2014 11:23:54 -71.29,-172.89 113.40 04/01/2014 11:22:47 -71.30,-175.38 113.32 88.98 67
14 04/01/2014 12:13:35 70.41, -6.59 65.74 04/01/2014 12:13:16 70.41, -6.58 65.74 0.94 19
15 04/01/2014 13:03:05 -70.31, 160.89 114.38 04/01/2014 13:03:58 -70.30, 160.90 114.39 0.40 53
16 04/04/2014 03:40:32 -70.49, -58.23 115.21 04/04/2014 03:39:33 -70.48, -58.24 115.21 0.91 59
17 04/04/2014 04:29:59 70.37, 109.24 64.66 04/04/2014 04:30:17 70.37, 109.24 64.66 0.04 18




NCC Satellite Simultaneous Nadir Overpasses (SNOs) Prediction Service
